This is the latest recevied weather packets stored in our database for station/object N4PWG. If no packets are shown the sender has not sent any weather packets the latest 10 day(s).
| Time | Temp. | Humidity | Pressure | Rain* | Wind** | Luminosity | Snow |
|---|---|---|---|---|---|---|---|
| 1777675310 | 17.78° C | 39% | 1032.1 hPa | 0 mm | - | 154 W/m² | - |
| 1777675006 | 18.33° C | 38% | 1032.2 hPa | 0 mm | - | 88 W/m² | - |
| 1777674703 | 18.33° C | 39% | 1032.1 hPa | 0 mm | - | 202 W/m² | - |
| 1777674399 | 18.89° C | 39% | 1032 hPa | 0 mm | - | 252 W/m² | - |
| 1777674096 | 18.89° C | 35% | 1031.7 hPa | 0 mm | - | 249 W/m² | - |
| 1777673792 | 19.44° C | 38% | 1031.9 hPa | 0 mm | - | 256 W/m² | - |
| 1777673490 | 18.89° C | 35% | 1031.8 hPa | 0 mm | - | 273 W/m² | - |
| 1777673188 | 18.33° C | 39% | 1031.7 hPa | 0 mm | - | 238 W/m² | - |
| 1777672884 | 18.89° C | 40% | 1031.8 hPa | 0 mm | - | 281 W/m² | - |
| 1777672581 | 18.89° C | 36% | 1031.7 hPa | 0 mm | - | 325 W/m² | - |
| 1777672276 | 18.89° C | 38% | 1031.8 hPa | 0 mm | - | 364 W/m² | - |
| 1777671971 | 18.89° C | 35% | 1031.8 hPa | 0 mm | - | 418 W/m² | - |
| 1777671667 | 17.78° C | 36% | 1031.8 hPa | 0 mm | - | 355 W/m² | - |
| 1777671364 | 17.78° C | 38% | 1032.1 hPa | 0 mm | - | 238 W/m² | - |
| 1777671060 | 17.78° C | 38% | 1032.1 hPa | 0 mm | - | 217 W/m² | - |
| 1777670757 | 18.33° C | 37% | 1032 hPa | 0 mm | - | 178 W/m² | - |
| 1777670454 | 18.33° C | 36% | 1032.1 hPa | 0 mm | - | 467 W/m² | - |
| 1777670150 | 18.33° C | 38% | 1031.9 hPa | 0 mm | - | 513 W/m² | - |
| 1777669849 | 17.78° C | 41% | 1032.3 hPa | 0 mm | - | 478 W/m² | - |
| 1777669544 | 18.89° C | 43% | 1032.3 hPa | 0 mm | - | 573 W/m² | - |
| 1777669242 | 18.89° C | 43% | 1032.4 hPa | 0 mm | - | 488 W/m² | - |
| 1777668938 | 18.89° C | 41% | 1032.5 hPa | 0 mm | - | 455 W/m² | - |
| 1777668636 | 18.89° C | 42% | 1032.8 hPa | 0 mm | - | 380 W/m² | - |
| 1777668332 | 18.33° C | 40% | 1032.6 hPa | 0 mm | - | 476 W/m² | - |
| 1777668028 | 18.89° C | 41% | 1032.7 hPa | 0 mm | - | 410 W/m² | - |
* Rain latest hour (hover to see other rain measurements)
** Current wind speed in m/s (hover to see current wind gust speed)